This is the latest recevied weather packets stored in our database for station/object N7MLR. If no packets are shown the sender has not sent any weather packets the latest 10 day(s).
| Time | Temp. | Humidity | Pressure | Rain* | Wind** | Luminosity | Snow |
|---|---|---|---|---|---|---|---|
| 1777898298 | 16.11° C | 88% | 1014.8 hPa | 0 mm | - | 28 W/m² | - |
| 1777897995 | 16.11° C | 88% | 1014.3 hPa | 0 mm | - | 25 W/m² | - |
| 1777897691 | 16.11° C | 88% | 1014.6 hPa | 0 mm | - | 15 W/m² | - |
| 1777897388 | 16.11° C | 88% | 1014.5 hPa | 0 mm | - | 22 W/m² | - |
| 1777897083 | 16.11° C | 88% | 1014.6 hPa | 0 mm | - | 22 W/m² | - |
| 1777896780 | 15.56° C | 89% | 1014.6 hPa | 0 mm | - | 24 W/m² | - |
| 1777896477 | 15.56° C | 89% | 1014.4 hPa | 0 mm | - | 18 W/m² | - |
| 1777896175 | 15.56° C | 90% | 1014.6 hPa | 0 mm | - | 8 W/m² | - |
| 1777895872 | 15° C | 90% | 1014.2 hPa | 0 mm | - | 4 W/m² | - |
| 1777895570 | 15° C | 90% | 1014 hPa | 0 mm | - | 1 W/m² | - |
| 1777895267 | 15° C | 90% | 1014.4 hPa | 0 mm | - | 0 W/m² | - |
| 1777894964 | 15° C | 90% | 1014.4 hPa | 0 mm | - | 0 W/m² | - |
| 1777894662 | 15° C | 90% | 1014.2 hPa | 0 mm | - | 0 W/m² | - |
| 1777894358 | 15° C | 90% | 1014.2 hPa | 0 mm | - | 0 W/m² | - |
| 1777894056 | 15° C | 90% | 1014.2 hPa | 0 mm | - | 0 W/m² | - |
| 1777893752 | 15° C | 90% | 1014.2 hPa | 0 mm | - | 0 W/m² | - |
| 1777893449 | 15° C | 89% | 1014.1 hPa | 0 mm | - | 0 W/m² | - |
| 1777893145 | 15° C | 89% | 1013.8 hPa | 0 mm | - | 0 W/m² | - |
| 1777892842 | 15° C | 89% | 1014 hPa | 0 mm | - | 0 W/m² | - |
| 1777892539 | 15° C | 89% | 1014.2 hPa | 0 mm | - | 0 W/m² | - |
| 1777892234 | 15° C | 89% | 1014.3 hPa | 0 mm | - | 0 W/m² | - |
| 1777891931 | 15° C | 89% | 1014.2 hPa | 0 mm | - | 0 W/m² | - |
| 1777891629 | 15° C | 89% | 1014.2 hPa | 0 mm | - | 0 W/m² | - |
| 1777891325 | 15° C | 89% | 1014.6 hPa | 0 mm | - | 0 W/m² | - |
| 1777891020 | 15° C | 89% | 1014.4 hPa | 0 mm | - | 0 W/m² | - |
* Rain latest hour (hover to see other rain measurements)
** Current wind speed in m/s (hover to see current wind gust speed)